time_stamp(utc),avg(mph),gust(mph),direction(deg),12m_air_temp(f),sonic_u(cm/s),sonic_v(cm/s),sonic_w(cm/s),pressure,2m_air_temp(f),pyranometer(W/m^2)
"2018-12-02 00:02:07+00",14.1,17.1,,45.9,583,-219,3,1018.79,45.3,0
"2018-12-02 00:07:07+00",15.5,18.5,,46.1,625,-280,17,1018.9,45.4,0
"2018-12-02 00:12:07+00",17.9,19.9,,46.1,719,-327,2,1018.76,45.4,0
"2018-12-02 00:17:07+00",17.0,19.0,,46.1,699,-264,19,1018.75,45.5,0
"2018-12-02 00:22:07+00",12.5,14.5,,46,524,-183,10,1018.74,45.5,0
"2018-12-02 00:27:07+00",15.4,18.4,,46.1,647,-228,19,1018.87,45.5,0
"2018-12-02 00:32:07+00",15.6,19.6,,46.2,637,-252,10,1018.76,45.6,0
"2018-12-02 00:37:07+00",16.5,18.5,,46.2,691,-261,16,1018.59,45.6,0
"2018-12-02 00:42:07+00",17.7,21.7,,46.3,731,-280,8,1018.65,45.7,0
"2018-12-02 00:47:07+00",15.9,18.9,,46.4,671,-226,20,1018.68,45.8,0
"2018-12-02 00:52:07+00",16.3,18.3,,46.3,683,-244,26,1018.48,45.8,0
"2018-12-02 00:57:07+00",17.7,19.7,,46.4,717,-329,4,1018.46,45.8,0
"2018-12-02 01:02:07+00",19.5,21.5,,46.5,795,-334,7,1018.39,45.9,0
"2018-12-02 01:07:07+00",18.4,23.4,,46.5,739,-354,-14,1018.42,45.9,0
"2018-12-02 01:12:07+00",15.3,18.3,,46.5,617,-298,9,1018.27,46,0
"2018-12-02 01:17:07+00",18.7,21.7,,46.6,732,-380,7,1018.2,46,0
"2018-12-02 01:22:07+00",17.0,19.0,,46.7,684,-326,14,1018.08,46.1,0
"2018-12-02 01:27:07+00",18.8,22.8,,46.9,744,-379,-10,1018.13,46.2,0
"2018-12-02 01:32:07+00",18.0,20.0,,47,702,-398,15,1018.11,46.3,0
"2018-12-02 01:37:07+00",19.7,22.7,,47,778,-401,-3,1017.99,46.4,0
"2018-12-02 01:42:07+00",19.0,22.0,,46.9,780,-343,1,1017.71,46.4,0
"2018-12-02 01:47:07+00",19.0,21.0,,47.1,794,-300,-1,1017.7,46.5,0
"2018-12-02 01:52:07+00",16.3,18.3,,47.1,684,-260,-1,1017.72,46.6,0
"2018-12-02 01:57:07+00",17.1,19.1,,47.2,709,-273,-3,1017.73,46.7,0
"2018-12-02 02:02:07+00",16.4,18.4,,47.2,699,-200,3,1017.74,46.7,0
"2018-12-02 02:07:07+00",15.8,17.8,,47.4,662,-260,1,1017.98,46.9,0
"2018-12-02 02:12:07+00",15.5,17.5,,47.4,659,-220,-5,1017.91,46.9,0
"2018-12-02 02:17:07+00",16.0,18.0,,47.4,674,-225,12,1017.72,46.9,0
"2018-12-02 02:22:07+00",17.4,19.4,,47.6,710,-327,-9,1017.77,47,0
"2018-12-02 02:27:07+00",14.0,16.0,,47.7,564,-281,6,1017.75,47.1,0
"2018-12-02 02:32:07+00",14.4,17.4,,47.7,569,-298,7,1017.88,47.1,0
"2018-12-02 02:37:07+00",14.0,16.0,,47.7,557,-275,2,1017.85,47.2,0
"2018-12-02 02:42:07+00",13.7,16.7,,47.8,544,-261,4,1017.81,47.2,0
"2018-12-02 02:47:07+00",11.9,13.9,,47.8,486,-205,5,1017.74,47.2,0
"2018-12-02 02:52:07+00",12.6,14.6,,47.9,527,-202,8,1017.68,47.3,0
"2018-12-02 02:57:07+00",10.7,12.7,,47.9,437,-182,-2,1017.85,47.3,0
"2018-12-02 03:02:07+00",10.8,13.8,,47.9,454,-154,-11,1017.68,47.3,0
"2018-12-02 03:07:07+00",11.3,13.3,,47.9,494,-96,14,1017.52,47.3,0
"2018-12-02 03:12:07+00",10.9,12.9,,47.8,483,-95,18,1017.51,47.2,0
"2018-12-02 03:17:07+00",11.8,13.8,,47.8,506,-118,2,1017.67,47.2,0
"2018-12-02 03:22:07+00",11.3,12.3,,47.8,487,-120,0,1017.65,47.1,0
"2018-12-02 03:27:07+00",11.4,12.4,,47.7,500,-92,13,1017.64,47,0
"2018-12-02 03:32:07+00",12.5,13.5,,47.6,557,-49,17,1017.33,47,0
"2018-12-02 03:37:07+00",11.7,13.7,,47.6,515,-76,16,1017.22,46.9,0
"2018-12-02 03:42:07+00",10.6,12.6,,47.5,462,-49,17,1017.17,46.9,0
"2018-12-02 03:47:07+00",12.5,15.5,,47.5,549,-123,3,1017.01,46.9,0
"2018-12-02 03:52:07+00",13.9,15.9,,47.6,592,-158,-3,1016.9,47,0
"2018-12-02 03:57:07+00",13.0,16.0,,47.5,563,-128,24,1016.77,47,0
"2018-12-02 04:02:07+00",13.7,14.7,,47.5,587,-138,2,1016.67,47,0
"2018-12-02 04:07:07+00",13.2,15.2,,47.5,558,-127,5,1016.57,47.1,0
"2018-12-02 04:12:07+00",10.9,12.9,,47.4,475,-62,20,1016.46,47,0
"2018-12-02 04:17:07+00",11.4,13.4,,47.5,499,-75,20,1016.35,47,0
"2018-12-02 04:22:07+00",13.1,15.1,,47.5,573,-79,19,1016.12,47.1,0
"2018-12-02 04:27:07+00",12.8,15.8,,47.7,556,-55,30,1016,47.2,0
"2018-12-02 04:32:07+00",12.2,14.2,,47.7,524,-101,10,1016.02,47.2,0
"2018-12-02 04:37:07+00",14.0,16.0,,47.7,609,-107,13,1015.82,47.3,0
"2018-12-02 04:42:07+00",13.8,15.8,,47.7,596,-118,6,1015.66,47.3,0
"2018-12-02 04:47:07+00",15.1,18.1,,47.9,650,-157,-5,1015.34,47.4,0
"2018-12-02 04:52:07+00",12.4,14.4,,47.9,538,-96,26,1015.28,47.4,0
"2018-12-02 04:57:07+00",12.9,14.9,,48,568,-80,20,1015.11,47.5,0
"2018-12-02 05:02:07+00",12.9,14.9,,48,562,-97,21,1015.11,47.6,0
"2018-12-02 05:07:07+00",13.9,15.9,,48.2,609,-123,5,1015.07,47.7,0
"2018-12-02 05:12:07+00",12.4,14.4,,48.2,544,-77,11,1014.98,47.7,0
"2018-12-02 05:17:07+00",12.4,14.4,,48.3,540,-88,20,1014.84,47.8,0
"2018-12-02 05:22:07+00",12.1,14.1,,48.4,508,-132,12,1014.72,47.8,0
"2018-12-02 05:27:07+00",12.6,16.6,,48.4,512,-214,24,1014.6,48,0
"2018-12-02 05:32:07+00",15.2,17.2,,48.5,604,-305,-11,1014.42,48.1,0
"2018-12-02 05:37:07+00",14.5,16.5,,48.5,562,-314,0,1014.44,48.1,0
"2018-12-02 05:42:07+00",14.0,17.0,,48.6,553,-294,16,1014.3,48.1,0
"2018-12-02 05:47:07+00",14.7,16.7,,48.6,573,-309,-9,1014.18,48.2,0
"2018-12-02 05:52:07+00",14.6,16.6,,48.6,558,-322,4,1014.06,48.1,0
"2018-12-02 05:57:07+00",15.9,18.9,,48.7,568,-374,-5,1013.99,48.3,0
"2018-12-02 06:02:07+00",15.4,17.4,,48.8,575,-375,-2,1013.78,48.3,0
"2018-12-02 06:07:07+00",14.4,16.4,,48.8,524,-374,15,1013.73,48.4,0
"2018-12-02 06:12:07+00",16.1,19.1,,48.9,583,-394,12,1013.46,48.5,0
"2018-12-02 06:17:07+00",16.4,18.4,,49,592,-410,-3,1013.31,48.6,0
"2018-12-02 06:22:07+00",16.0,18.0,,49.1,582,-392,8,1013.23,48.6,0
"2018-12-02 06:27:07+00",17.4,20.4,,49.2,667,-369,3,1012.89,48.7,0
"2018-12-02 06:32:07+00",14.9,16.9,,49.1,568,-352,0,1012.95,48.7,0
"2018-12-02 06:37:07+00",14.0,16.0,,49.1,544,-302,4,1012.94,48.7,0
"2018-12-02 06:42:07+00",15.2,17.2,,49.2,600,-306,9,1012.79,48.7,0
"2018-12-02 06:47:07+00",15.7,16.7,,49.4,592,-356,1,1012.76,48.8,0
"2018-12-02 06:52:07+00",15.5,17.5,,49.4,604,-320,12,1012.7,48.9,0
"2018-12-02 06:57:07+00",14.1,17.1,,49.5,542,-304,5,1012.73,49,0
"2018-12-02 07:02:07+00",13.7,16.7,,49.5,519,-303,2,1012.73,49,0
"2018-12-02 07:07:07+00",14.4,16.4,,49.5,547,-323,0,1012.7,49,0
"2018-12-02 07:12:07+00",12.9,16.9,,49.6,483,-297,12,1012.67,49,0
"2018-12-02 07:17:07+00",12.9,14.9,,49.7,470,-321,-5,1012.69,49.2,0
"2018-12-02 07:22:07+00",13.4,14.4,,49.8,488,-327,8,1012.66,49.2,0
"2018-12-02 07:27:07+00",11.5,13.5,,49.7,421,-290,11,1012.57,49.2,0
"2018-12-02 07:32:07+00",13.9,14.9,,49.8,517,-341,3,1012.32,49.2,0
"2018-12-02 07:37:07+00",14.4,15.4,,49.9,515,-367,-1,1012.28,49.3,0
"2018-12-02 07:42:07+00",14.1,16.1,,49.9,495,-363,0,1012,49.3,0
"2018-12-02 07:47:07+00",14.3,17.3,,50,498,-381,-2,1011.82,49.4,0
"2018-12-02 07:52:07+00",15.4,17.4,,50.3,515,-439,-2,1011.69,49.6,0
"2018-12-02 07:57:07+00",15.1,18.1,,50.5,490,-426,3,1011.57,49.9,0
"2018-12-02 08:02:07+00",15.4,18.4,,50.6,482,-469,3,1011.43,50,0
"2018-12-02 08:07:07+00",15.8,17.8,,50.7,468,-510,-7,1011.35,50.1,0
"2018-12-02 08:12:07+00",14.4,16.4,,50.9,405,-476,-6,1011.39,50.3,0
"2018-12-02 08:17:07+00",13.7,16.7,,50.9,387,-460,0,1011.33,50.3,0
"2018-12-02 08:22:07+00",15.0,17.0,,50.8,437,-498,-9,1011.24,50.3,0
"2018-12-02 08:27:07+00",14.9,17.9,,50.9,416,-501,-12,1011.1,50.3,0
"2018-12-02 08:32:07+00",13.8,15.8,,51,383,-459,-11,1011.02,50.3,0
"2018-12-02 08:37:07+00",13.4,15.4,,51,336,-482,-3,1010.88,50.4,0
"2018-12-02 08:42:07+00",13.3,15.3,,51.2,337,-474,8,1010.61,50.5,0
"2018-12-02 08:47:07+00",14.5,17.5,,51.1,393,-484,-5,1010.64,50.5,0
"2018-12-02 08:52:07+00",13.8,15.8,,51.1,391,-467,-8,1010.64,50.5,0
"2018-12-02 08:57:07+00",13.8,16.8,,51.1,414,-432,-4,1010.51,50.5,0
"2018-12-02 09:02:07+00",13.8,15.8,,51.1,422,-433,-3,1010.34,50.4,0
"2018-12-02 09:07:07+00",13.7,15.7,,51.1,409,-447,-6,1010.24,50.5,0
"2018-12-02 09:12:07+00",14.0,16.0,,51.2,405,-469,-8,1010.15,50.6,0
"2018-12-02 09:17:07+00",13.9,15.9,,51.2,371,-485,-8,1010.25,50.5,0
"2018-12-02 09:22:07+00",14.4,15.4,,51.3,369,-517,-5,1010.12,50.6,0
"2018-12-02 09:27:07+00",14.3,16.3,,51.4,329,-536,-15,1010.11,50.7,0
"2018-12-02 09:32:07+00",14.6,16.6,,51.5,352,-531,-5,1009.94,50.8,0
"2018-12-02 09:37:07+00",15.8,17.8,,51.7,372,-586,-4,1009.82,51,0
"2018-12-02 09:42:07+00",15.7,17.7,,51.8,386,-563,-9,1009.7,51,0
"2018-12-02 09:47:07+00",15.8,17.8,,51.7,367,-585,-11,1009.63,51.1,0
"2018-12-02 09:52:07+00",15.7,18.7,,51.7,349,-574,2,1009.6,51,0
"2018-12-02 09:57:07+00",15.5,17.5,,51.8,365,-556,-3,1009.55,51.1,0
"2018-12-02 10:02:07+00",16.3,18.3,,52,397,-586,-14,1009.43,51.2,0
"2018-12-02 10:07:07+00",15.9,16.9,,51.8,431,-543,-8,1009.26,51.1,0
"2018-12-02 10:12:07+00",14.8,16.8,,51.7,394,-515,-6,1009.13,51.1,0
"2018-12-02 10:17:07+00",16.1,18.1,,51.8,424,-549,-7,1008.99,51.1,0
"2018-12-02 10:22:07+00",15.4,17.4,,51.8,423,-532,-13,1008.91,51,0
"2018-12-02 10:27:07+00",15.5,18.5,,51.8,425,-516,-2,1008.92,51.2,0
"2018-12-02 10:32:07+00",15.0,18.0,,51.8,425,-504,2,1008.87,51.1,0
"2018-12-02 10:37:07+00",17.2,19.2,,52,484,-569,-5,1008.83,51.3,0
"2018-12-02 10:42:07+00",16.0,18.0,,51.9,447,-527,-4,1008.83,51.4,0
"2018-12-02 10:47:07+00",17.4,20.4,,52,485,-578,-2,1008.7,51.3,0
"2018-12-02 10:52:07+00",16.9,18.9,,52,463,-553,-2,1008.7,51.5,0
"2018-12-02 10:57:07+00",17.3,19.3,,52.1,424,-597,-7,1008.78,51.5,0
"2018-12-02 11:02:07+00",17.2,20.2,,52.1,452,-608,-7,1008.72,51.5,0
"2018-12-02 11:07:07+00",17.5,19.5,,52.1,452,-612,-1,1008.61,51.5,0
"2018-12-02 11:12:07+00",16.1,18.1,,52.1,429,-549,-9,1008.53,51.6,0
"2018-12-02 11:17:07+00",13.7,16.7,,52.2,342,-495,1,1008.67,51.6,0
"2018-12-02 11:22:07+00",14.6,18.6,,52.2,351,-518,-3,1008.78,51.7,0
"2018-12-02 11:27:07+00",14.8,16.8,,52.4,379,-522,-3,1008.61,51.8,0
"2018-12-02 11:32:07+00",16.2,19.2,,52.6,389,-593,-10,1008.67,52,0
"2018-12-02 11:37:07+00",16.2,18.2,,52.5,386,-586,-16,1008.51,51.9,0
"2018-12-02 11:42:07+00",18.0,21.0,,52.8,466,-623,-7,1008.2,52.2,0
"2018-12-02 11:47:07+00",19.2,22.2,,52.9,450,-665,16,1008.15,52.2,0
"2018-12-02 11:52:07+00",16.4,18.4,,52.8,403,-594,-9,1008.08,52.3,0
"2018-12-02 11:57:07+00",16.9,19.9,,52.9,399,-623,1,1007.87,52.3,0
"2018-12-02 12:02:07+00",16.2,19.2,,52.9,330,-615,-9,1007.97,52.4,0
"2018-12-02 12:07:07+00",17.0,19.0,,52.8,386,-646,-16,1007.73,52.3,0
"2018-12-02 12:12:07+00",17.5,20.5,,53,365,-664,0,1007.62,52.4,0
"2018-12-02 12:17:07+00",16.2,19.2,,53.1,344,-622,-3,1007.58,52.5,0
"2018-12-02 12:22:07+00",16.9,19.9,,53.2,325,-652,-24,1007.57,52.6,0
"2018-12-02 12:27:07+00",16.9,20.9,,53.3,299,-666,-2,1007.74,52.8,0
"2018-12-02 12:32:07+00",17.9,19.9,,53.4,324,-699,-7,1007.63,52.8,0
"2018-12-02 12:37:07+00",17.9,19.9,,53.5,303,-719,-14,1007.48,52.9,0
"2018-12-02 12:42:07+00",17.8,19.8,,53.3,301,-701,-4,1007.44,52.8,0
"2018-12-02 12:47:07+00",16.6,19.6,,53.3,270,-651,8,1007.37,52.8,0
"2018-12-02 12:52:07+00",15.7,17.7,,53.1,244,-625,-5,1007.3,52.7,0
"2018-12-02 12:57:07+00",13.9,15.9,,52.8,203,-561,-3,1007.3,52.5,0
"2018-12-02 13:02:07+00",14.6,16.6,,52.7,213,-592,-18,1007.22,52.3,0
"2018-12-02 13:07:07+00",15.6,17.6,,52.9,248,-630,-11,1007.11,52.4,0
"2018-12-02 13:12:07+00",15.0,17.0,,52.9,232,-621,-11,1007.01,52.5,0
"2018-12-02 13:17:07+00",14.0,16.0,,52.7,192,-576,-9,1006.83,52.3,0
"2018-12-02 13:22:07+00",15.3,18.3,,52.8,221,-620,-1,1006.83,52.4,0
"2018-12-02 13:27:07+00",14.9,16.9,,52.7,169,-618,-17,1006.71,52.3,0
"2018-12-02 13:32:07+00",10.9,12.9,,52.5,95,-463,-5,1006.8,52.2,0
"2018-12-02 13:37:07+00",11.6,14.6,,52.3,81,-485,-5,1006.75,52,0
"2018-12-02 13:42:07+00",11.5,16.5,,52.7,114,-480,4,1006.54,52.3,0
"2018-12-02 13:47:07+00",13.1,16.1,,52.8,124,-543,-7,1006.54,52.5,0
"2018-12-02 13:52:07+00",14.1,16.1,,53.1,123,-569,-19,1006.3,52.7,0
"2018-12-02 13:57:07+00",14.3,18.3,,53.1,109,-606,-22,1006.23,52.8,0
"2018-12-02 14:02:07+00",13.0,18.0,,53.3,92,-536,19,1006.23,53,0.2
"2018-12-02 14:07:07+00",15.4,19.4,,53.4,78,-638,-6,1006.33,53.1,0.2
"2018-12-02 14:12:07+00",14.5,18.5,,53.6,46,-616,-13,1006.52,53.3,2.3
"2018-12-02 14:17:07+00",15.9,19.9,,54.2,27,-659,-28,1006.51,53.8,7.3
"2018-12-02 14:22:07+00",16.7,21.7,,54.2,36,-698,-38,1006.29,53.9,7.9
"2018-12-02 14:27:07+00",15.4,21.4,,54,-3,-643,-17,1006.36,53.8,7.5
"2018-12-02 14:32:07+00",14.8,17.8,,54.4,-26,-621,-22,1006.43,54.1,9.2
"2018-12-02 14:37:07+00",14.7,17.7,,54.6,-47,-608,5,1006.4,54.4,15.4
"2018-12-02 14:42:07+00",13.7,16.7,,54.6,-53,-571,-20,1006.42,54.4,19.4
"2018-12-02 14:47:07+00",16.0,20.0,,54.9,-150,-643,-21,1006.62,54.7,10.4
"2018-12-02 14:52:07+00",14.8,19.8,,55.2,-221,-598,12,1006.65,54.9,8.3
"2018-12-02 14:57:07+00",14.6,19.6,,55.1,-269,-562,0,1006.63,54.7,0.7
"2018-12-02 15:02:07+00",15.0,19.0,,54.9,-307,-564,-3,1006.75,54.6,3
"2018-12-02 15:07:07+00",15.4,20.4,,55,-288,-593,0,1006.77,54.6,11.4
"2018-12-02 15:12:07+00",16.1,18.1,,55.1,-303,-609,-2,1006.68,54.8,8.6
"2018-12-02 15:17:07+00",17.3,20.3,,55.5,-305,-660,-4,1006.48,55.1,23.2
"2018-12-02 15:22:07+00",15.6,17.6,,55.6,-311,-599,2,1006.34,55.3,26.9
"2018-12-02 15:27:07+00",15.3,19.3,,55.8,-264,-596,13,1006.23,55.4,23.4
"2018-12-02 15:32:07+00",17.6,21.6,,55.8,-343,-662,-12,1006.3,55.5,19.8
"2018-12-02 15:37:07+00",16.8,19.8,,55.6,-385,-622,5,1006.35,55.3,21.9
"2018-12-02 15:42:07+00",15.6,18.6,,55.3,-376,-571,-1,1006.38,55.1,21.8
"2018-12-02 15:47:07+00",14.3,16.3,,55,-382,-513,24,1006.28,54.7,20
"2018-12-02 15:52:07+00",14.9,16.9,,54.9,-434,-495,-9,1006.26,54.6,22.3
"2018-12-02 15:57:07+00",15.3,17.3,,55.1,-467,-478,8,1006.27,54.7,18.7
"2018-12-02 16:02:07+00",15.0,17.0,,54.9,-456,-484,13,1006.15,54.6,21.5
"2018-12-02 16:07:07+00",13.4,15.4,,54.5,-406,-423,20,1005.99,54.3,25.8
"2018-12-02 16:12:07+00",15.8,18.8,,54.4,-476,-524,2,1005.9,54.1,10.3
"2018-12-02 16:17:07+00",15.7,17.7,,54,-486,-499,18,1005.97,53.7,2.4
"2018-12-02 16:22:07+00",15.4,17.4,,53.8,-486,-458,14,1005.88,53.4,5.1
"2018-12-02 16:27:07+00",16.2,17.2,,53.9,-491,-522,4,1005.76,53.5,12.4
"2018-12-02 16:32:07+00",13.9,15.9,,53.6,-369,-490,1,1005.65,53.4,17.3
"2018-12-02 16:37:07+00",12.0,13.0,,53.4,-320,-428,12,1005.6,53.2,9.2
"2018-12-02 16:42:07+00",11.4,13.4,,53.6,-280,-409,6,1005.42,53.2,11.5
"2018-12-02 16:47:07+00",11.0,12.0,,53.9,-243,-407,17,1005.34,53.6,19.1
"2018-12-02 16:52:07+00",13.7,15.7,,54.2,-356,-496,-6,1005.31,53.9,30
"2018-12-02 16:57:07+00",10.2,11.2,,54.1,-178,-395,-5,1005.25,53.9,19.4
"2018-12-02 17:02:07+00",10.2,12.2,,53.8,-183,-397,3,1005.24,53.7,11.2
"2018-12-02 17:07:07+00",14.3,16.3,,53.8,-253,-548,3,1005.35,53.7,17.7
"2018-12-02 17:12:07+00",13.3,16.3,,53.5,-230,-508,2,1005.34,53.4,18.9
"2018-12-02 17:17:07+00",13.3,15.3,,53.2,-254,-491,-7,1005.37,53.2,15.8
"2018-12-02 17:22:07+00",11.8,13.8,,53.2,-248,-443,0,1005.27,53.1,25.8
"2018-12-02 17:27:07+00",11.8,12.8,,53.5,-301,-424,7,1005.04,53.3,45.1
"2018-12-02 17:32:07+00",12.0,15.0,,53.8,-289,-438,8,1004.99,53.6,30.8
"2018-12-02 17:37:07+00",11.3,13.3,,53.8,-258,-414,-1,1004.52,53.7,59
"2018-12-02 17:42:07+00",11.0,13.0,,54.1,-264,-398,5,1004.36,54,91.3
"2018-12-02 17:47:07+00",10.8,11.8,,54.2,-241,-401,-10,1004.31,54.2,94.7
"2018-12-02 17:52:07+00",9.3,11.3,,54.9,-137,-366,0,1004.18,54.8,95.5
"2018-12-02 17:57:07+00",10.0,13.0,,55.2,-223,-373,18,1004.3,55.1,42.3
"2018-12-02 18:02:07+00",8.8,11.8,,55.1,-116,-341,-3,1004.2,55.2,77.5
"2018-12-02 18:07:07+00",11.2,13.2,,55,-177,-442,-2,1004.37,55.2,48.9
"2018-12-02 18:12:07+00",10.1,11.1,,54.3,-191,-386,4,1004.41,54.4,47.9
"2018-12-02 18:17:07+00",10.2,12.2,,54.5,-308,-343,10,1004.36,54.3,38
"2018-12-02 18:22:07+00",10.2,11.2,,54.9,-299,-343,12,1004.23,54.6,14.3
"2018-12-02 18:27:07+00",10.2,11.2,,55,-301,-342,0,1004.2,54.7,32
"2018-12-02 18:32:07+00",10.0,12.0,,54.9,-297,-340,12,1004.13,54.8,71.9
"2018-12-02 18:37:07+00",10.2,12.2,,54.9,-296,-348,9,1004.1,54.8,49.6
"2018-12-02 18:42:07+00",12.1,14.1,,55,-318,-433,3,1004.15,54.8,48.3
"2018-12-02 18:47:07+00",12.2,14.2,,54.9,-357,-405,7,1004.06,54.7,13.2
"2018-12-02 18:52:07+00",9.8,11.8,,54.8,-271,-342,11,1003.94,54.5,8
"2018-12-02 18:57:07+00",11.0,13.0,,54.9,-295,-392,19,1003.78,54.6,45.1
"2018-12-02 19:02:07+00",12.4,14.4,,55.3,-367,-419,9,1003.78,55,40.6
"2018-12-02 19:07:07+00",10.0,11.0,,55.1,-300,-338,21,1003.79,54.9,28.1
"2018-12-02 19:12:07+00",9.9,10.9,,55.1,-281,-341,-4,1003.61,54.8,34.5
"2018-12-02 19:17:07+00",9.1,10.1,,55,-249,-313,5,1003.53,54.8,20.5
"2018-12-02 19:22:07+00",10.0,12.0,,55.2,-288,-338,-2,1003.53,54.8,11.8
"2018-12-02 19:27:07+00",9.5,12.5,,55.2,-291,-305,11,1003.56,54.8,9.3
"2018-12-02 19:32:07+00",8.7,9.7,,55.1,-265,-274,6,1003.51,54.7,13.3
"2018-12-02 19:37:07+00",8.6,10.6,,55.3,-265,-274,6,1003.41,54.9,16.2
"2018-12-02 19:42:07+00",7.4,8.4,,55.2,-231,-223,6,1003.35,54.9,26.2
"2018-12-02 19:47:07+00",7.9,8.9,,55.2,-254,-233,1,1003.26,54.7,21.1
"2018-12-02 19:52:07+00",7.1,8.1,,54.8,-222,-220,1,1003.26,54.5,11.2
"2018-12-02 19:57:07+00",7.3,8.3,,54.6,-141,-278,3,1003.35,54.3,4.3
"2018-12-02 20:02:07+00",6.8,8.8,,54.9,-94,-272,3,1003.24,54.6,12.5
"2018-12-02 20:07:07+00",6.3,7.3,,55.3,-126,-237,-5,1003.29,54.8,0.4
"2018-12-02 20:12:07+00",6.0,7.0,,55.6,-166,-202,2,1003.36,54.9,0
"2018-12-02 20:17:07+00",6.1,7.1,,55.6,-142,-223,6,1003.25,54.9,0.3
"2018-12-02 20:22:07+00",8.4,10.4,,55.5,-212,-303,5,1003.29,55,0
"2018-12-02 20:27:07+00",10.0,11.0,,55.8,-272,-357,10,1003.29,55.1,0
"2018-12-02 20:32:07+00",10.5,11.5,,55.4,-264,-380,4,1003.36,54.9,0
"2018-12-02 20:37:07+00",10.9,12.9,,55.4,-245,-398,-4,1003.34,54.7,0
"2018-12-02 20:42:07+00",9.9,11.9,,55.4,-228,-354,5,1003.42,54.7,0
"2018-12-02 20:47:07+00",8.6,9.6,,54.7,-201,-315,1,1003.31,54.2,0
"2018-12-02 20:52:07+00",8.8,9.8,,54.3,-206,-326,-1,1003.43,53.9,0
"2018-12-02 20:57:07+00",9.9,10.9,,54,-275,-344,-4,1003.49,53.5,0
"2018-12-02 21:02:07+00",9.0,10.0,,53.9,-212,-331,3,1003.42,53.2,0
"2018-12-02 21:07:07+00",6.8,7.8,,53.7,-102,-265,4,1003.08,53.1,0
"2018-12-02 21:12:07+00",7.4,9.4,,53.7,-84,-299,2,1003.1,53.2,0
"2018-12-02 21:17:07+00",9.4,12.4,,53.7,-72,-392,-12,1003.07,53.4,0
"2018-12-02 21:22:07+00",10.2,13.2,,53.1,-118,-410,-5,1003.03,53.1,0
"2018-12-02 21:27:07+00",12.7,14.7,,53.2,-237,-483,-9,1003.01,52.7,0
"2018-12-02 21:32:07+00",12.3,14.3,,53.5,-258,-462,-1,1002.97,52.9,0
"2018-12-02 21:37:07+00",11.3,12.3,,53.5,-237,-424,-2,1002.97,52.8,0
"2018-12-02 21:42:07+00",11.8,12.8,,53.3,-208,-452,-1,1002.97,52.7,0
"2018-12-02 21:47:07+00",11.6,12.6,,53.2,-247,-432,-3,1003.01,52.6,0
"2018-12-02 21:52:07+00",9.5,10.5,,52.8,-219,-351,-2,1002.93,52.3,0
"2018-12-02 21:57:07+00",7.9,8.9,,52.8,-140,-303,2,1002.88,52.1,0
"2018-12-02 22:02:07+00",9.8,11.8,,52.8,-153,-385,0,1002.72,52.3,0
"2018-12-02 22:07:07+00",9.9,10.9,,53.1,-171,-377,-1,1002.71,52.5,0
"2018-12-02 22:12:07+00",8.2,10.2,,53.2,-173,-308,4,1002.7,52.6,0
"2018-12-02 22:17:07+00",8.6,9.6,,53,-212,-312,3,1002.66,52.4,0
"2018-12-02 22:22:07+00",7.0,8.0,,52.6,-220,-205,7,1002.71,52.2,0
"2018-12-02 22:27:07+00",6.3,7.3,,52.2,-146,-232,3,1002.58,51.8,0
"2018-12-02 22:32:07+00",7.7,8.7,,52.1,-148,-294,2,1002.71,51.5,0
"2018-12-02 22:37:07+00",6.5,7.5,,52.3,-189,-217,6,1002.66,51.5,0
"2018-12-02 22:42:07+00",7.2,8.2,,52.7,-200,-246,-2,1002.58,51.7,0
"2018-12-02 22:47:07+00",6.6,7.6,,52.7,-79,-265,3,1002.46,52,0
"2018-12-02 22:52:07+00",6.0,7.0,,52.4,-121,-226,3,1002.4,52,0
"2018-12-02 22:57:07+00",7.7,8.7,,52.9,-118,-303,0,1002.38,52.2,0
"2018-12-02 23:02:07+00",8.1,10.1,,53.1,-181,-302,7,1002.55,52.5,0
"2018-12-02 23:07:07+00",9.6,12.6,,53,-259,-342,13,1002.56,52.5,0
"2018-12-02 23:12:07+00",10.1,11.1,,52.7,-340,-276,9,1002.64,52.3,0
"2018-12-02 23:17:07+00",11.2,12.2,,52.8,-384,-291,32,1002.62,52.3,0
"2018-12-02 23:22:07+00",9.7,10.7,,52.2,-312,-284,10,1002.6,51.9,0
"2018-12-02 23:27:07+00",10.0,11.0,,52.4,-288,-333,-1,1002.67,51.7,0
"2018-12-02 23:32:07+00",10.2,12.2,,52.7,-232,-370,1,1002.64,52.2,0
"2018-12-02 23:37:07+00",9.0,10.0,,52.6,-287,-251,9,1002.62,52.1,0
"2018-12-02 23:42:07+00",10.1,12.1,,52.7,-216,-379,-3,1002.58,52.2,0
"2018-12-02 23:47:07+00",9.7,11.7,,53,-283,-333,1,1002.69,52.3,0
"2018-12-02 23:52:07+00",10.1,12.1,,53.1,-272,-354,0,1002.64,52.4,0
"2018-12-02 23:57:07+00",10.6,12.6,,53.4,-257,-388,2,1002.55,52.6,0
